This is the latest recevied weather packets stored in our database for station/object K6HFP. If no packets are shown the sender has not sent any weather packets the latest 10 day(s).
| Time | Temp. | Humidity | Pressure | Rain* | Wind** | Luminosity | Snow |
|---|---|---|---|---|---|---|---|
| 1777956253 | 10.56° C | 92% | 1013.6 hPa | 0 mm | - | 0 W/m² | - |
| 1777955949 | 10.56° C | 92% | 1013.6 hPa | 0 mm | - | 0 W/m² | - |
| 1777955645 | 10.56° C | 92% | 1013.4 hPa | 0 mm | - | 0 W/m² | - |
| 1777955342 | 10.56° C | 92% | 1013.3 hPa | 1.27 mm | - | 0 W/m² | - |
| 1777955039 | 10.56° C | 93% | 1013.5 hPa | 1.27 mm | - | 0 W/m² | - |
| 1777954736 | 10.56° C | 93% | 1013.3 hPa | 0 mm | - | 0 W/m² | - |
| 1777954432 | 10.56° C | 93% | 1013.5 hPa | 0 mm | - | 0 W/m² | - |
| 1777954130 | 10.56° C | 93% | 1013.4 hPa | 0 mm | - | 0 W/m² | - |
| 1777953827 | 10.56° C | 92% | 1013.1 hPa | 0 mm | - | 0 W/m² | - |
| 1777953524 | 10.56° C | 92% | 1013.3 hPa | 3.05 mm | - | 0 W/m² | - |
| 1777953219 | 10.56° C | 91% | 1013.5 hPa | 4.32 mm | - | 0 W/m² | - |
| 1777952917 | 10.56° C | 91% | 1013.4 hPa | 3.05 mm | - | 0 W/m² | - |
| 1777952613 | 10.56° C | 90% | 1013.5 hPa | 0 mm | - | 0 W/m² | - |
| 1777952311 | 10.56° C | 90% | 1013.4 hPa | 0 mm | - | 0 W/m² | - |
| 1777952008 | 10.56° C | 91% | 1013.3 hPa | 0 mm | - | 0 W/m² | - |
| 1777951706 | 10.56° C | 91% | 1013.3 hPa | 0 mm | - | 0 W/m² | - |
| 1777951402 | 10.56° C | 90% | 1013.5 hPa | 0 mm | - | 0 W/m² | - |
| 1777951099 | 10.56° C | 91% | 1013.5 hPa | 0 mm | - | 0 W/m² | - |
| 1777950795 | 10.56° C | 91% | 1013.3 hPa | 0 mm | - | 0 W/m² | - |
| 1777950493 | 10.56° C | 91% | 1012.7 hPa | 1.78 mm | - | 0 W/m² | - |
| 1777950189 | 10.56° C | 91% | 1013 hPa | 1.78 mm | - | 0 W/m² | - |
| 1777949884 | 10.56° C | 91% | 1012.8 hPa | 0 mm | - | 1 W/m² | - |
| 1777949582 | 10.56° C | 91% | 1012.9 hPa | 0 mm | - | 1 W/m² | - |
| 1777949281 | 10.56° C | 90% | 1013.6 hPa | 0 mm | - | 1 W/m² | - |
| 1777948978 | 10.56° C | 90% | 1013.4 hPa | 0 mm | - | 1 W/m² | - |
* Rain latest hour (hover to see other rain measurements)
** Current wind speed in m/s (hover to see current wind gust speed)